Wind_Speed
63 63 63 62 62 62 62 61 61 60 58 57 56 55 55 54 54 53 52 51 51 50 49 49 49 50 50 52 53 55 56 58 59 61 62 62 61 60 59 57 54 51 49 48 48 48 49 52 54 56 59 61 64 68 73 77 80 83 85 84 80 76 75 70 65 64 62 58 56 55 55 54 52 50 47 44 44 43 40 40 44 46 45 43 41
65 65 65 64 64 64 64 63 62 61 60 59 57 56 56 56 56 55 54 53 52 52 51 51 52 52 53 55 57 59 60 61 63 64 64 63 62 62 61 60 57 53 51 49 48 48 48 50 53 54 57 60 64 66 70 76 79 82 86 88 86 82 79 75 71 69 67 62 57 55 54 52 52 52 51 48 45 44 41 40 42 45 46 45 42
66 67 67 67 67 66 66 65 64 63 62 60 59 57 56 56 56 56 55 54 54 53 53 53 54 55 56 58 60 62 64 65 65 66 65 64 63 62 62 62 60 57 54 50 48 48 48 49 51 53 55 58 63 66 69 73 78 82 84 86 89 88 84 79 75 73 71 67 62 59 56 53 51 51 52 51 47 43 40 40 41 43 45 44 43
67 68 69 69 68 69 68 67 66 64 63 62 61 59 58 57 56 56 57 56 56 56 56 56 56 57 59 61 62 64 67 68 69 68 67 66 65 63 62 62 62 60 57 52 49 49 48 48 49 51 52 55 61 65 68 72 77 81 83 83 87 91 89 83 79 77 75 71 67 64 61 57 53 51 52 52 50 45 40 39 41 45 46 44 43
69 69 70 70 71 71 70 69 68 66 65 64 63 61 60 58 57 57 57 57 57 58 58 58 58 59 60 62 65 66 68 70 71 70 69 68 68 67 64 63 63 61 58 54 51 50 49 48 47 49 51 53 57 63 68 71 75 80 83 83 83 87 89 86 82 81 79 76 71 66 63 61 56 52 52 53 53 50 44 40 41 46 47 46 45
71 71 71 72 72 72 72 71 69 68 66 66 65 63 61 59 58 58 58 59 59 59 60 60 61 61 62 63 66 68 70 73 73 72 71 71 71 68 66 64 64 62 58 55 53 51 48 47 46 47 50 52 55 61 66 70 73 77 81 83 81 82 85 85 83 82 81 79 74 67 63 63 58 54 53 54 54 53 49 44 44 45 47 48 47
73 72 74 74 74 74 73 72 71 69 67 66 66 64 62 60 60 60 60 60 60 60 61 62 63 63 63 64 66 69 71 73 73 73 74 74 72 70 68 66 64 61 57 54 53 51 48 46 46 46 48 51 53 58 64 68 72 75 78 81 81 79 81 80 79 80 82 80 75 68 64 64 60 54 54 55 54 53 50 48 47 47 46 47 46
74 74 76 76 76 76 75 73 72 70 69 68 66 65 63 61 61 61 61 62 61 61 62 63 64 64 65 65 66 68 70 72 74 76 76 76 74 71 68 66 63 60 56 53 52 50 47 45 45 44 46 49 52 56 61 66 70 73 76 79 80 79 79 79 76 78 82 80 74 70 67 64 61 57 54 54 54 53 52 50 49 48 46 45 45
76 77 78 78 78 78 76 75 73 71 70 69 68 66 64 62 62 61 62 62 62 62 62 63 64 65 66 66 67 68 70 73 77 77 76 75 74 71 67 64 61 58 55 52 49 47 45 44 43 43 44 46 50 53 59 63 68 72 74 77 80 80 80 80 77 74 79 80 73 70 69 65 63 61 57 54 54 54 53 51 49 48 46 45 45
78 79 79 80 80 79 78 77 75 73 72 70 69 68 65 64 63 62 62 61 62 62 63 64 65 66 67 68 69 70 73 76 78 78 77 75 72 69 64 60 58 56 53 49 46 44 43 42 41 41 42 44 47 51 56 61 65 70 73 75 79 80 80 81 77 70 74 79 74 71 70 67 65 65 60 56 56 55 53 49 47 48 47 45 45
79 80 81 81 81 80 79 78 76 75 73 72 71 69 67 65 63 62 62 62 62 62 63 64 65 66 68 69 70 73 76 79 80 79 78 75 72 67 61 56 55 53 50 46 44 42 40 40 39 38 40 42 45 49 54 58 62 67 71 74 78 80 79 79 76 69 69 75 75 72 71 69 67 65 61 58 57 56 54 50 48 47 46 46 47
80 81 81 82 81 81 80 79 77 76 75 74 72 70 68 66 64 63 63 63 63 63 64 64 65 66 68 70 73 75 79 82 83 83 81 78 73 67 60 55 52 49 46 44 42 40 37 37 36 36 37 40 42 46 51 55 59 64 69 74 77 80 78 76 76 71 69 72 74 72 71 69 66 63 61 60 59 56 54 51 49 46 45 46 48
81 81 82 83 82 82 81 80 78 77 76 75 73 70 68 66 65 64 63 63 63 64 64 64 65 68 69 72 75 78 81 83 84 85 84 80 74 67 60 55 50 45 42 41 39 37 35 35 34 33 35 37 40 44 48 52 57 61 67 73 77 79 78 76 76 75 71 71 72 71 71 68 64 63 63 63 61 57 53 52 51 47 43 44 47
81 82 83 83 83 82 82 80 79 78 77 75 73 70 67 66 64 63 63 64 64 64 65 66 67 70 72 74 77 79 81 83 84 84 83 78 72 66 59 54 48 42 40 38 36 35 33 32 32 32 32 34 37 41 46 50 54 58 64 70 75 78 78 76 76 76 73 71 71 71 69 66 63 64 65 64 61 58 54 54 53 49 44 42 44
83 83 84 84 84 83 81 80 80 78 77 75 71 66 65 64 62 63 64 65 66 66 66 67 69 72 75 77 79 80 81 82 82 82 80 75 69 63 57 51 45 39 37 35 33 32 31 30 29 30 30 32 35 39 44 48 52 57 61 67 73 77 78 76 75 75 74 72 71 70 68 65 64 65 65 63 61 58 57 56 54 51 46 41 40
84 85 86 86 85 83 82 81 80 77 76 73 67 64 64 63 63 65 67 67 67 68 68 70 73 75 77 79 80 82 82 82 81 80 77 72 66 60 55 48 41 37 35 32 31 30 29 27 27 28 29 30 31 35 41 45 50 54 59 64 71 75 77 76 75 75 74 73 73 71 68 66 66 67 66 63 61 59 59 57 55 52 47 41 41
86 87 88 88 86 85 83 81 79 77 75 71 67 66 67 66 65 67 68 68 69 70 71 73 76 78 80 81 82 83 84 83 81 78 75 70 63 57 51 44 38 35 32 29 28 28 26 25 26 26 27 27 28 31 37 42 46 51 56 62 68 73 76 76 75 74 74 74 74 72 69 68 68 68 67 64 61 61 60 57 56 54 51 47 46
88 89 90 89 88 86 83 80 79 77 73 69 67 68 68 68 68 68 69 70 71 72 74 77 79 81 82 83 84 84 84 83 79 75 71 66 59 53 47 40 36 33 29 27 26 25 25 24 24 23 23 24 25 28 33 39 43 47 53 59 65 71 75 75 75 75 74 74 74 72 69 68 68 68 67 65 63 63 62 59 58 56 56 54 51
91 91 91 90 89 85 83 82 79 75 71 67 65 67 69 70 71 71 72 72 73 75 78 80 81 83 84 85 86 85 83 81 76 71 67 62 55 48 43 37 34 32 28 25 24 24 24 23 22 20 19 20 21 23 29 35 39 43 49 55 62 68 73 75 75 75 75 75 75 73 69 67 68 69 68 67 66 65 65 64 61 58 60 59 53
93 93 92 91 88 84 82 80 76 72 69 66 65 68 72 73 73 73 74 75 76 79 81 82 84 86 86 87 87 84 81 78 73 68 62 56 49 43 36 31 31 30 27 25 24 25 25 23 21 19 16 17 18 19 24 30 35 39 44 50 58 65 71 74 75 76 76 76 76 74 71 68 67 68 68 68 67 67 67 68 65 61 62 62 55
94 93 92 91 87 84 81 78 74 71 69 66 67 71 74 74 73 75 76 77 79 81 83 85 86 88 88 87 84 81 79 75 70 63 57 51 45 38 31 26 28 29 26 24 24 25 25 23 21 17 14 15 16 16 19 24 30 36 41 47 54 62 68 73 75 76 77 76 75 74 73 70 66 66 67 68 68 68 69 69 68 64 63 63 58
94 93 92 90 88 84 79 75 72 70 66 66 69 72 74 74 76 77 78 79 81 82 84 86 87 88 88 86 82 79 76 71 66 60 53 47 42 36 29 25 26 27 25 24 25 26 25 23 21 17 13 13 13 12 14 18 23 31 38 44 50 58 65 71 74 76 76 75 74 72 70 69 67 66 66 67 68 69 70 69 69 67 65 64 61
95 94 92 90 87 82 77 74 71 67 64 67 72 73 74 76 78 79 80 82 83 84 85 87 88 88 86 83 79 74 69 66 63 57 50 44 40 35 30 25 25 25 25 25 26 27 26 24 22 18 15 14 13 11 11 13 18 25 34 41 48 55 62 68 73 75 74 73 73 71 68 66 64 64 66 67 68 69 70 69 69 68 66 65 64
96 94 91 89 85 81 77 73 68 65 66 70 74 75 76 78 80 81 83 84 85 86 86 87 88 86 83 81 77 68 63 62 60 54 48 42 38 34 30 26 24 24 25 26 28 29 28 26 23 18 15 15 14 13 12 11 13 19 27 37 45 52 59 65 70 73 73 72 71 70 68 63 59 59 63 67 68 68 69 69 69 68 67 65 64
95 93 90 87 83 80 76 68 63 66 72 74 75 77 78 80 82 83 84 86 87 88 87 87 86 84 82 80 73 63 59 59 56 51 46 40 35 31 28 25 23 24 25 27 31 31 30 27 23 17 15 15 15 16 15 11 10 14 20 30 41 49 56 62 66 70 71 71 70 69 67 64 60 59 60 63 67 69 68 68 68 67 67 65 63
93 92 89 85 81 78 74 69 68 72 76 77 79 81 81 83 84 84 85 87 87 86 84 83 83 82 80 77 69 60 57 56 53 49 45 39 33 30 27 23 22 24 25 29 32 33 31 29 24 18 16 16 17 19 20 14 11 12 15 23 35 46 53 59 64 67 69 69 68 67 66 65 64 63 61 60 62 66 68 68 68 67 67 65 64
93 90 87 83 79 76 73 72 74 77 78 80 83 83 83 85 86 86 87 87 87 86 84 81 81 81 78 73 66 60 55 52 49 48 43 37 32 30 27 23 22 24 27 30 35 36 33 30 26 21 19 19 21 24 23 18 15 14 13 17 28 40 49 55 59 64 67 68 68 67 66 67 66 64 62 58 57 59 62 63 64 65 67 66 65
91 88 84 81 78 76 76 77 79 81 83 84 84 84 86 88 88 87 87 87 87 87 84 81 80 78 73 67 62 58 53 48 46 45 41 34 30 28 27 23 22 26 29 33 37 38 36 33 28 23 21 23 27 27 24 21 19 18 16 16 21 32 43 50 56 61 65 67 68 67 67 68 66 64 62 60 58 56 57 59 60 61 62 64 68
89 86 83 81 79 79 80 81 83 84 86 87 87 87 88 89 90 90 89 88 87 84 82 80 77 73 68 63 60 56 51 45 42 41 38 32 28 26 26 24 23 28 32 36 41 42 39 35 30 25 24 28 30 29 24 23 24 23 20 18 19 24 35 46 53 59 63 65 66 66 66 67 66 63 62 63 62 59 57 59 62 62 61 63 68
86 85 84 83 82 83 84 85 86 87 88 89 90 89 89 90 92 91 88 86 84 82 79 76 72 69 66 62 58 53 48 43 39 37 34 31 27 25 25 24 24 29 34 39 44 45 42 38 33 28 28 31 33 31 28 28 29 27 24 22 20 20 27 40 49 56 61 63 64 65 64 64 64 63 63 65 65 64 61 61 63 67 69 69 69
85 86 86 86 85 87 88 89 90 90 90 90 91 91 91 91 91 88 85 82 80 78 75 72 69 66 63 59 55 51 47 41 37 35 32 30 26 24 24 24 26 31 37 42 47 48 45 41 36 31 31 35 36 35 32 31 32 31 27 25 23 19 21 31 42 51 57 60 62 63 63 62 62 63 65 65 65 66 66 63 61 65 70 72 72
86 87 88 88 88 89 91 92 92 92 92 92 92 92 90 88 85 83 81 79 76 74 71 69 67 64 60 56 53 50 45 41 36 33 31 29 26 24 23 24 27 33 39 44 50 51 48 45 40 35 35 38 40 38 34 32 34 35 32 29 27 23 20 24 32 41 49 55 59 61 61 61 61 63 64 65 64 64 65 65 63 64 67 69 71
88 89 90 90 89 91 92 93 93 94 94 93 92 90 87 84 81 79 77 76 74 72 70 67 64 60 56 53 51 47 44 41 37 33 31 29 27 25 23 24 28 35 41 46 52 54 51 48 44 39 39 43 43 40 36 34 36 37 36 33 31 29 26 25 27 30 36 44 52 56 58 57 56 57 60 62 63 62 63 65 66 67 67 69 70
90 90 91 91 92 93 94 94 93 94 92 91 90 87 84 82 80 77 75 74 73 71 68 64 60 56 52 49 48 46 44 42 39 35 32 30 28 26 24 24 28 36 43 48 53 56 55 51 48 45 44 47 47 44 39 38 38 40 41 38 37 35 33 31 31 30 30 33 39 47 52 51 46 45 50 54 57 60 62 64 66 67 68 71 73
91 92 92 93 94 95 96 95 94 91 88 87 87 85 81 80 79 77 75 73 70 66 62 59 56 53 49 47 46 44 42 41 41 39 34 31 29 27 25 24 27 35 45 50 54 58 58 55 52 50 50 51 51 48 44 41 40 43 45 44 43 41 39 38 38 36 35 34 34 38 45 48 45 42 45 48 51 54 58 61 64 65 66 67 71
93 93 93 93 94 94 93 92 90 88 85 85 85 83 80 79 78 75 72 69 65 61 58 56 53 51 47 45 43 42 41 41 41 41 38 34 30 28 26 25 26 33 44 52 55 59 61 59 56 55 55 55 54 52 50 46 43 45 48 49 48 47 45 44 44 43 42 42 40 39 42 47 49 48 48 49 50 51 53 56 60 62 63 62 63
94 94 93 92 91 90 87 85 85 85 83 83 81 80 79 78 75 71 67 64 61 59 56 53 51 48 45 42 41 41 41 41 41 42 41 38 33 30 28 27 27 31 41 51 57 60 63 63 61 59 60 60 58 56 54 51 47 47 51 53 54 52 50 49 49 48 47 47 47 44 44 48 52 54 53 52 52 51 50 51 53 56 60 61 61
95 95 92 89 87 87 86 85 84 83 81 80 79 77 76 73 70 66 63 60 57 55 53 51 48 45 42 41 40 39 40 41 41 42 43 42 38 33 31 30 28 29 36 48 57 61 64 66 65 63 63 64 63 60 58 55 52 50 52 55 57 57 55 54 53 52 52 52 52 50 49 50 53 56 58 56 55 53 51 51 52 53 56 60 63
93 93 90 88 86 85 83 82 81 80 78 77 75 73 71 68 65 62 58 55 53 51 49 48 46 43 42 42 40 39 40 41 41 42 43 44 42 38 34 33 31 29 32 42 54 61 64 67 68 66 67 68 67 64 61 59 56 55 55 56 58 61 61 59 57 56 56 56 56 55 55 55 54 57 60 61 59 57 56 56 57 58 59 60 63
91 90 88 86 85 83 81 79 79 78 76 73 70 68 66 64 61 57 53 51 49 47 46 45 44 42 42 42 41 40 40 42 43 43 44 45 44 42 39 36 34 31 30 35 47 59 65 68 69 70 70 71 71 69 65 62 60 60 60 59 59 62 64 64 61 59 59 58 57 57 60 60 58 58 61 63 62 60 60 61 60 60 61 61 62
87 86 85 83 81 79 78 77 75 73 71 68 66 64 62 59 56 53 50 47 45 44 43 43 42 41 41 41 41 41 41 43 44 45 46 45 45 45 43 41 38 35 33 33 40 52 63 68 71 72 73 74 75 73 70 66 63 62 64 64 62 63 66 68 66 64 63 62 60 59 61 64 63 61 62 65 65 63 63 65 64 62 61 61 61
83 83 82 80 78 76 74 72 70 67 65 63 61 59 57 54 51 48 46 45 43 42 41 41 41 41 41 41 42 42 42 43 45 47 47 47 46 46 46 46 44 41 38 35 36 44 56 66 72 74 75 76 78 78 75 72 68 65 66 69 68 66 66 70 71 69 67 66 64 62 63 67 68 67 66 67 68 67 67 68 69 68 66 65 65
81 80 78 76 73 71 68 65 63 60 58 57 55 53 51 49 47 45 44 43 42 41 41 40 40 40 41 41 43 43 44 45 45 46 47 49 49 47 48 49 48 45 43 40 38 39 48 60 71 76 76 77 80 82 81 77 74 70 69 71 73 71 68 70 73 74 72 70 69 67 66 67 70 72 72 71 72 72 71 71 71 72 72 71 70
77 76 73 70 67 64 61 59 56 54 53 52 51 49 47 46 44 43 42 41 41 41 41 40 40 40 40 41 43 44 45 46 46 46 47 48 49 49 48 49 50 49 48 46 42 40 42 51 64 75 79 79 81 84 86 83 80 77 74 73 75 76 73 71 73 77 78 76 74 72 71 70 71 74 75 76 76 75 75 74 73 73 74 74 74
72 70 66 63 61 58 55 53 52 50 49 48 47 47 45 44 43 42 41 41 41 41 40 40 40 40 40 41 42 44 46 46 47 47 48 49 49 49 49 49 51 52 53 51 48 45 43 46 54 67 78 82 82 85 88 88 86 83 80 78 78 79 79 76 75 76 79 81 79 78 76 76 76 76 77 79 79 80 79 78 77 76 76 76 77
66 64 61 58 55 53 51 49 48 47 46 45 45 45 44 43 43 42 42 42 42 42 41 40 40 41 41 42 42 43 45 46 47 48 49 50 50 51 51 51 52 54 57 57 54 51 48 47 49 57 70 81 85 87 89 91 91 89 86 83 82 82 82 82 79 78 79 82 84 83 82 81 81 81 81 81 82 83 83 82 81 80 79 79 79
61 59 56 53 50 48 47 46 45 45 45 44 44 44 44 43 43 43 43 42 42 42 41 40 39 40 42 42 42 42 43 45 46 47 49 50 50 51 52 53 54 55 58 59 58 55 53 51 49 51 58 71 83 89 91 93 94 94 92 90 87 86 86 86 85 83 82 83 85 87 87 86 85 84 84 84 85 85 85 85 84 83 81 80 80
57 54 51 49 47 46 45 45 44 44 44 44 44 44 44 44 44 44 43 42 40 40 40 40 39 39 39 40 41 41 42 43 44 46 47 49 50 50 51 52 54 55 57 58 58 58 56 54 53 52 53 60 72 84 91 94 96 97 97 96 94 92 91 90 89 88 87 86 87 89 91 90 89 87 86 86 87 87 86 86 86 86 85 83 82
53 50 48 47 46 45 45 45 46 45 45 45 44 44 44 44 43 43 41 40 38 37 37 38 37 37 36 37 39 40 40 41 42 43 45 46 48 49 50 51 52 54 55 56 58 58 57 56 56 57 56 57 62 73 85 93 97 99 100 101 100 98 96 95 94 93 92 90 90 91 93 95 94 93 90 89 89 89 89 89 88 88 87 87 86
50 48 46 46 46 46 46 47 47 46 45 44 43 43 42 41 40 40 39 37 36 35 35 35 35 34 34 34 35 37 38 39 40 41 42 43 45 46 48 49 50 51 53 54 55 57 57 57 56 57 59 60 60 64 73 85 95 100 102 103 104 103 102 101 100 99 98 96 95 94 94 97 98 98 97 94 92 91 92 92 91 91 90 90 90
48 47 46 46 46 47 47 47 46 45 44 43 41 41 40 39 37 36 35 35 34 33 33 32 32 32 32 32 33 33 35 36 36 37 39 40 41 43 44 45 46 47 49 50 51 53 54 55 55 56 58 61 62 62 65 73 84 94 100 103 105 106 107 106 106 105 104 103 101 99 98 98 100 101 102 101 99 97 95 94 94 94 94 94 94
Wind_Direction
328 330 330 329 327 327 326 325 324 323 321 319 317 315 313 311 309 308 307 306 304 303 301 300 299 299 300 302 304 305 306 307 308 308 307 307 306 305 304 302 300 297 292 286 280 274 269 264 259 254 251 248 244 237 231 229 228 226 225 225 224 224 225 224 223 226 227 226 227 230 231 232 234 233 232 234 232 227 224 231 240 245 246 247 249
327 329 329 328 327 326 325 324 323 322 321 319 317 315 313 311 310 309 308 306 304 303 302 301 301 301 302 304 305 306 307 308 308 308 308 307 307 307 307 305 302 299 294 288 283 277 271 265 260 255 252 249 245 240 233 229 227 226 225 224 223 224 225 225 223 223 225 224 225 228 229 230 233 233 232 233 230 224 221 227 238 245 247 247 248
326 327 327 327 326 325 325 324 323 322 321 319 317 315 313 311 310 309 307 306 304 304 303 302 302 302 303 304 305 306 307 307 307 307 308 308 308 308 308 307 304 301 296 290 285 280 274 267 262 257 252 248 245 241 235 229 226 226 226 224 223 224 226 226 224 223 224 224 224 227 229 229 231 232 231 231 229 224 223 226 234 242 244 244 245
325 326 326 325 325 324 324 323 323 321 320 319 317 315 313 311 310 308 307 305 305 304 303 302 302 302 303 304 305 305 306 307 307 308 308 309 310 309 308 307 304 301 297 293 288 283 276 270 265 259 254 248 244 241 235 229 225 225 226 225 223 224 226 227 226 225 225 225 224 225 227 229 230 231 229 228 228 226 224 225 232 237 239 240 241
324 324 324 324 324 324 324 323 322 321 320 318 317 315 313 311 310 308 306 305 304 303 302 302 302 302 302 304 305 305 306 307 307 308 309 311 311 310 309 308 305 301 297 294 290 284 278 272 266 261 255 248 243 239 235 230 225 223 224 225 224 223 224 225 226 226 226 228 227 224 225 226 228 228 227 226 226 226 224 226 233 236 235 236 238
323 323 323 323 323 323 323 322 321 320 319 318 316 315 313 311 309 307 306 305 303 303 302 301 301 301 302 304 305 306 307 307 307 309 311 312 312 311 311 308 304 300 297 294 290 285 279 274 267 261 256 249 242 238 235 230 225 222 223 225 225 223 222 223 224 225 226 228 228 224 221 223 224 225 224 224 224 224 223 226 233 234 231 234 234
321 321 322 322 322 323 322 322 321 320 319 317 315 314 313 311 309 307 306 304 303 302 302 301 301 302 303 304 305 306 308 308 307 310 312 312 312 312 311 309 304 300 296 293 289 285 280 274 268 261 255 249 242 236 233 230 226 222 221 223 224 223 222 222 223 223 224 227 227 223 219 220 222 222 222 222 223 222 221 225 229 229 229 232 233
320 320 321 322 322 322 322 321 320 319 318 316 315 314 312 310 309 307 305 304 303 302 302 301 302 302 303 304 305 307 309 308 308 310 311 312 313 313 312 309 304 299 296 293 289 284 280 274 268 261 254 248 242 236 232 229 226 223 221 221 222 222 221 220 221 221 222 224 224 222 218 218 219 220 221 222 221 220 221 224 227 227 227 230 232
319 320 321 321 321 322 321 320 320 318 317 316 315 314 312 310 308 306 304 303 303 302 302 302 302 303 303 304 305 308 309 308 308 310 311 313 314 313 312 308 303 300 297 293 288 284 279 273 267 260 253 247 241 236 231 228 225 222 220 219 220 221 221 219 218 219 220 221 221 220 217 215 216 218 219 221 221 220 221 224 227 227 227 228 231
318 319 320 320 321 321 320 320 319 318 317 316 315 313 311 309 307 306 304 304 303 302 303 303 303 303 304 305 307 309 309 309 309 310 312 313 314 314 312 309 304 301 298 294 289 283 278 272 265 258 252 245 240 235 231 227 224 221 219 217 217 220 221 219 218 218 217 217 217 217 215 213 214 216 218 219 220 220 221 224 227 228 226 227 229
317 318 319 319 320 320 320 319 318 318 317 316 314 312 310 309 307 306 305 304 304 304 303 303 303 304 305 307 309 310 311 311 311 312 314 315 316 316 314 310 306 302 299 294 289 283 276 270 264 257 250 243 238 234 231 227 223 221 218 216 216 218 220 219 219 219 216 214 215 215 214 213 212 213 215 218 219 220 220 222 226 228 226 226 228
316 317 318 319 319 319 319 319 318 317 316 315 313 311 310 308 307 306 305 304 304 304 303 303 304 306 308 310 311 312 313 314 314 315 317 317 318 318 316 312 308 304 299 294 288 282 275 268 262 255 247 242 236 233 230 227 223 220 217 216 215 217 220 219 218 219 217 215 214 214 213 212 210 210 213 216 218 218 218 220 224 226 225 225 228
315 316 317 318 319 319 318 318 317 316 315 313 312 310 309 308 307 306 305 304 304 304 304 305 307 308 310 312 313 315 315 316 317 317 318 318 318 318 316 313 310 305 299 293 286 280 273 266 260 252 244 240 236 232 230 227 223 219 216 215 215 216 218 218 217 218 217 216 215 214 213 211 207 207 210 214 217 217 216 219 223 224 225 226 228
315 316 316 317 318 318 318 317 316 315 314 312 311 309 308 308 307 305 305 305 306 306 306 308 309 311 312 313 314 315 316 316 317 317 317 317 317 316 315 313 310 304 297 290 283 276 270 263 257 250 242 239 236 233 230 226 223 220 216 215 214 215 217 217 217 216 217 217 215 215 213 209 205 206 209 212 215 216 217 220 223 224 225 228 230
314 315 316 317 318 318 317 316 315 314 313 312 310 309 308 307 306 305 306 307 308 307 308 310 311 312 312 314 315 315 316 316 317 317 316 317 316 315 315 312 309 303 294 287 279 272 266 261 255 251 245 239 236 234 232 227 223 220 216 214 214 215 215 216 216 216 216 216 216 215 211 207 205 206 208 211 214 217 219 221 223 224 225 228 231
315 315 316 317 317 317 316 315 314 314 313 311 308 308 308 306 305 307 308 309 309 309 310 311 312 312 313 314 315 316 316 317 317 317 316 316 316 315 314 311 305 299 291 282 274 267 263 258 254 252 248 241 236 235 234 229 223 220 216 213 213 214 215 215 215 215 215 215 216 214 210 207 206 208 210 211 214 217 220 222 223 224 224 224 228
315 315 315 316 317 317 315 314 314 313 312 309 306 307 307 306 306 308 309 309 309 310 312 312 313 313 314 315 316 316 317 318 318 317 316 316 317 315 312 308 301 293 285 276 268 263 259 255 253 252 250 245 237 234 234 231 225 220 216 213 212 213 214 214 214 215 214 214 215 214 210 208 208 210 212 213 214 217 219 221 224 225 223 223 225
314 314 315 316 316 316 315 314 313 312 311 307 305 306 307 307 309 310 309 309 310 311 313 313 313 314 315 315 316 317 318 318 318 317 316 316 316 313 309 303 296 287 277 266 260 257 253 250 249 249 250 248 240 234 233 232 227 220 216 213 211 211 212 213 213 214 214 214 215 215 213 210 210 212 214 214 215 216 216 218 222 224 223 225 227
313 314 314 315 315 316 315 314 313 312 310 307 305 306 308 309 310 310 310 310 311 313 313 313 314 314 315 316 316 317 317 317 317 317 316 315 313 310 306 299 291 283 271 258 251 248 244 242 241 240 244 250 245 237 234 232 227 220 216 213 211 210 211 211 212 213 214 214 215 216 215 212 211 212 214 215 217 216 215 216 220 221 222 225 228
312 313 314 314 315 315 314 313 312 311 309 306 305 307 308 310 310 310 310 311 313 313 313 314 314 315 315 316 317 317 318 317 317 316 315 313 309 307 305 296 285 278 268 253 243 240 237 234 231 229 237 250 252 243 236 232 227 220 215 213 211 210 210 210 211 212 213 214 215 215 215 214 212 212 214 216 217 217 215 216 218 219 221 223 226
311 312 313 313 313 313 312 311 310 308 307 304 304 306 308 309 309 310 310 312 313 314 314 314 315 315 316 316 317 318 318 317 316 315 313 310 305 302 302 292 280 274 263 248 237 233 231 226 221 219 230 248 253 245 235 231 226 220 215 212 211 211 210 210 210 211 213 214 215 215 216 216 215 214 215 216 217 217 216 217 217 218 220 222 223
310 311 312 312 311 311 311 309 307 306 304 301 302 305 307 308 309 310 311 312 313 313 314 314 314 315 315 316 317 317 317 315 314 314 310 305 300 297 295 289 279 270 258 241 231 227 222 215 209 209 218 235 239 231 223 222 222 220 215 211 211 211 210 210 210 210 212 214 215 215 216 217 218 217 217 217 217 217 216 217 218 219 220 221 222
309 310 310 310 309 309 309 306 304 303 301 300 302 305 307 308 309 310 311 312 312 313 313 314 314 314 315 316 317 317 315 313 312 310 306 301 297 292 288 284 277 266 251 235 225 220 213 205 201 202 212 224 223 209 200 205 211 216 215 213 211 211 210 210 210 210 211 213 214 214 215 217 218 220 219 217 217 218 217 217 218 219 220 221 221
308 308 308 308 308 307 306 304 303 301 300 300 302 305 306 308 309 309 310 311 311 312 313 313 313 314 315 317 317 316 313 311 309 306 302 298 294 289 283 278 272 260 244 230 220 213 206 199 195 196 210 224 221 202 187 190 200 207 212 214 212 211 210 210 209 210 210 212 213 213 213 213 215 219 220 219 218 218 218 218 219 220 221 222 222
306 307 307 306 306 305 305 304 302 301 301 302 303 305 307 308 308 309 310 310 311 312 313 313 314 315 316 317 317 315 312 310 307 303 301 297 291 284 279 274 266 253 238 224 215 208 201 194 188 192 210 222 218 197 179 180 198 201 206 212 213 212 211 210 209 209 210 211 212 212 212 211 211 214 217 219 220 219 218 218 219 221 222 223 224
305 305 305 305 304 304 303 302 300 301 302 303 304 305 307 307 308 308 310 311 311 312 313 314 314 314 315 316 315 312 310 308 303 299 297 294 287 279 274 270 263 249 232 219 210 203 195 188 183 191 211 217 208 192 176 175 199 206 203 210 213 213 212 210 209 208 208 209 210 211 211 211 211 212 214 217 220 221 219 219 220 221 223 223 224
304 304 304 303 303 303 302 301 301 301 302 303 304 306 306 307 307 308 309 310 310 311 312 312 312 313 314 313 311 309 308 305 298 294 292 288 282 275 269 264 256 243 227 214 205 198 191 185 182 191 208 207 195 186 177 176 197 214 213 213 214 213 212 210 209 208 208 208 209 209 210 211 213 213 213 214 218 221 221 221 222 223 225 225 225
303 303 302 302 302 302 302 302 302 302 303 304 304 305 306 306 306 307 308 308 309 309 310 310 310 311 311 310 308 307 306 301 294 291 288 283 276 269 264 259 247 234 222 211 202 194 188 185 183 190 203 199 186 180 177 180 195 212 220 220 219 215 212 210 209 208 207 207 208 208 209 211 213 213 212 212 214 217 219 220 222 223 224 226 226
302 302 301 301 302 303 302 302 302 303 303 304 304 305 305 305 306 306 307 308 308 309 309 309 309 309 309 308 306 305 303 300 294 289 285 279 270 264 261 256 241 227 218 208 199 193 188 185 184 189 201 200 189 182 183 189 196 205 214 220 222 218 213 211 209 208 207 208 208 208 210 212 212 212 211 211 213 215 217 218 220 221 221 223 225
301 301 301 301 303 303 302 302 302 302 303 303 304 304 304 305 305 306 307 307 308 309 309 309 309 308 308 307 305 303 301 298 294 289 284 276 267 260 258 253 237 223 215 206 198 193 189 187 186 191 200 202 195 189 190 193 195 200 207 213 218 220 215 212 210 209 208 208 208 209 211 212 212 211 211 211 213 215 216 217 219 221 222 222 223
301 301 301 302 302 302 302 302 302 302 302 303 303 303 304 304 305 305 306 307 307 308 309 309 308 308 308 306 303 301 300 297 293 289 283 274 265 258 255 249 235 221 212 205 197 193 191 189 188 192 200 202 197 192 192 193 193 197 202 206 209 213 209 207 209 210 210 210 210 210 211 212 212 212 213 215 217 219 220 220 219 219 221 222 222
300 300 300 301 302 302 301 301 301 301 301 302 302 303 303 304 304 304 305 306 307 307 308 307 306 307 307 304 301 299 298 295 292 288 282 274 265 257 252 247 233 220 211 204 198 194 192 190 190 193 199 199 195 192 196 197 194 194 199 201 202 201 193 193 201 207 209 210 210 210 211 212 213 214 216 218 220 222 224 223 222 220 220 221 222
299 299 300 301 301 300 300 300 300 300 301 301 301 302 303 303 303 303 304 305 306 306 306 305 304 304 303 301 298 296 295 294 291 287 280 272 265 257 251 245 233 220 211 205 200 196 194 193 192 193 197 198 195 194 201 206 201 196 197 198 199 197 191 186 190 197 203 208 209 210 210 211 213 216 219 221 222 223 224 223 222 222 223 223 223
298 299 299 300 300 299 299 299 299 299 300 301 301 302 302 302 302 302 303 303 304 304 304 303 303 303 301 297 294 293 292 290 288 285 279 271 264 258 250 244 234 220 212 207 203 199 196 196 195 193 194 198 199 198 203 210 207 201 198 196 196 196 193 191 190 190 194 202 208 209 208 206 207 214 221 224 225 225 224 224 223 223 225 226 226
298 298 299 299 299 298 298 299 299 299 300 300 301 301 301 301 301 301 302 302 302 301 301 301 301 301 298 293 290 287 286 284 283 282 278 271 264 258 249 243 235 222 213 209 206 202 199 198 197 193 193 198 202 201 203 208 208 204 201 198 196 196 195 194 195 194 193 198 205 208 205 200 200 208 217 223 226 227 226 226 224 223 225 228 230
297 298 298 298 298 298 298 298 298 298 299 299 299 299 299 299 300 301 301 301 300 299 299 298 297 296 293 288 284 280 278 276 276 276 276 271 264 258 250 243 236 225 216 211 208 205 202 200 199 195 194 198 202 202 203 206 207 205 203 199 197 197 196 195 197 198 196 197 202 206 205 201 201 207 213 219 224 227 228 227 227 225 225 227 230
297 297 296 297 296 296 296 297 297 297 297 297 297 297 298 299 299 299 299 298 298 297 297 296 294 292 289 284 279 274 270 268 267 269 270 270 265 259 253 245 237 229 220 213 210 208 205 203 202 198 196 198 200 202 204 206 205 204 203 201 198 198 198 197 197 199 199 198 199 203 206 205 205 207 212 217 222 224 225 226 228 228 227 226 227
296 295 295 295 295 294 295 295 296 296 296 296 296 296 297 297 297 297 297 296 296 295 295 293 291 289 286 281 277 271 267 264 263 261 263 265 264 260 256 249 241 233 223 217 213 211 208 206 204 202 199 199 199 200 203 206 205 204 203 202 200 200 200 199 199 200 200 200 200 202 205 208 209 209 210 214 219 221 221 222 224 226 229 229 229
295 294 295 295 295 295 295 295 295 295 296 296 295 295 295 295 295 295 295 294 293 292 291 290 288 286 282 278 275 270 264 262 261 258 257 259 260 259 257 253 246 238 229 221 216 213 211 208 207 205 203 201 200 200 203 206 206 204 204 204 204 203 203 203 202 201 202 203 203 204 207 211 214 212 209 211 216 220 221 222 223 224 227 231 233
295 295 295 295 295 295 294 294 294 295 295 295 294 294 293 293 293 293 292 291 290 289 287 286 285 282 278 275 272 268 262 259 259 258 255 254 255 255 256 255 249 243 236 227 220 217 214 211 209 208 206 203 201 201 204 207 208 206 205 206 206 205 206 207 206 204 203 204 207 208 209 211 214 215 211 210 213 218 220 221 223 225 228 231 234
295 295 295 295 295 295 295 294 294 294 293 293 292 292 291 291 291 291 290 289 287 285 284 283 281 278 275 271 269 266 262 258 256 256 255 254 253 252 253 254 252 247 241 234 226 221 217 214 211 210 209 207 204 204 205 208 210 209 207 207 208 208 207 209 210 208 206 206 209 212 211 210 213 215 214 212 213 216 218 219 221 224 228 231 233
294 294 295 295 295 295 294 294 293 292 292 291 290 289 289 289 289 288 288 286 285 283 281 280 278 275 271 268 265 263 260 257 255 255 256 255 254 252 251 251 251 249 245 240 232 225 221 217 214 211 211 210 208 206 207 209 211 212 210 209 210 210 209 209 211 212 210 208 210 213 213 212 212 214 215 216 216 217 218 220 222 226 228 230 231
294 294 295 295 295 295 294 293 292 291 290 289 288 288 288 288 287 286 285 284 282 281 280 279 277 273 269 266 263 261 259 258 256 254 254 254 254 253 251 249 249 249 247 244 237 230 225 221 217 214 213 212 211 209 208 209 211 213 213 211 211 212 211 210 211 214 214 212 211 213 214 214 214 215 216 218 219 219 220 222 224 227 229 230 230
294 294 295 295 294 294 293 292 291 289 288 288 287 287 287 286 286 285 284 283 282 281 281 279 277 273 269 266 263 261 259 258 256 254 252 253 253 253 252 250 249 249 248 246 242 235 229 225 221 217 215 214 213 212 210 210 211 213 214 213 213 214 214 212 211 212 215 215 214 214 215 215 216 216 217 219 220 221 222 222 224 227 229 231 232
295 295 295 295 294 294 292 291 290 289 288 288 287 287 287 287 286 284 283 283 282 281 281 279 276 273 270 267 264 262 260 258 256 254 252 252 252 252 252 250 248 247 247 247 245 240 234 229 225 221 218 216 215 214 212 211 211 213 214 215 214 214 215 215 214 213 214 215 216 217 217 217 217 218 218 220 221 223 224 226 227 228 229 230 232
296 296 296 295 294 293 292 291 290 289 288 287 287 287 287 287 286 285 285 284 284 282 280 277 275 273 272 269 266 263 260 258 256 255 253 252 252 251 251 249 247 245 245 245 245 242 238 233 229 225 222 219 218 216 214 214 213 213 213 215 215 216 216 217 217 215 214 215 216 217 218 218 219 220 220 221 223 224 226 228 230 230 231 230 231
296 296 296 295 293 292 291 290 288 288 287 287 287 287 287 287 287 287 286 285 284 283 281 278 275 272 271 270 267 264 261 258 256 254 254 253 253 252 251 250 248 246 246 246 245 244 241 237 232 229 225 223 221 219 217 216 215 215 214 214 215 216 217 218 218 218 217 216 216 217 218 219 220 220 221 222 223 225 226 228 229 230 230 230 230
296 295 294 293 292 291 290 288 287 287 287 287 287 288 288 288 288 288 287 286 284 282 280 279 276 273 270 269 267 266 263 261 258 256 254 253 253 253 252 251 250 249 248 248 247 246 244 240 236 233 230 227 224 222 221 219 218 217 216 216 215 216 217 218 219 220 220 219 218 217 218 219 221 221 221 222 223 224 226 227 228 229 230 230 229
294 293 292 292 291 289 289 288 288 288 288 289 289 290 289 289 289 288 287 286 285 282 279 278 277 274 272 269 268 267 266 264 262 260 257 255 254 253 253 252 252 251 250 250 249 248 247 244 240 237 234 231 228 225 224 222 221 220 219 218 217 217 217 218 219 220 221 221 221 220 219 220 221 222 223 223 223 224 225 226 227 228 229 230 230
291 291 290 290 290 289 288 288 288 289 290 290 290 290 289 289 288 288 287 286 284 282 281 279 278 277 275 272 270 269 268 267 266 264 262 260 258 257 255 254 253 252 252 251 251 250 250 248 245 242 239 235 231 228 226 225 224 223 222 221 220 219 218 218 219 220 221 222 223 222 222 221 221 222 224 224 224 225 225 225 226 227 228 229 230
289 289 288 288 288 288 288 288 289 289 290 290 289 289 288 288 287 286 286 285 284 283 283 282 281 280 278 276 274 272 271 270 269 268 266 265 263 262 260 259 257 256 255 254 253 252 252 251 248 246 242 239 236 232 230 228 227 226 225 224 223 222 221 221 220 220 221 222 223 224 224 224 223 223 223 225 226 226 226 226 227 227 227 228 229
Height
10874 10872 10869 10865 10861 10857 10854 10850 10846 10843 10839 10836 10832 10828 10824 10820 10818 10815 10813 10810 10808 10806 10803 10800 10797 10795 10792 10790 10787 10785 10783 10781 10779 10775 10771 10768 10765 10761 10759 10756 10755 10754 10752 10751 10751 10750 10750 10749 10749 10750 10751 10753 10755 10759 10765 10769 10773 10779 10785 10791 10798 10805 10811 10818 10825 10827 10829 10836 10841 10844 10849 10853 10856 10861 10864 10867 10871 10873 10875 10877 10879 10881 10883 10884 10886
10867 10865 10863 10859 10856 10852 10849 10845 10841 10837 10833 10830 10826 10822 10818 10813 10810 10807 10805 10803 10800 10798 10796 10792 10790 10787 10784 10782 10779 10776 10773 10771 10769 10765 10761 10758 10755 10751 10748 10745 10743 10741 10740 10739 10739 10738 10738 10737 10737 10738 10739 10740 10741 10745 10751 10756 10762 10767 10771 10777 10786 10793 10800 10808 10816 10818 10821 10828 10834 10838 10842 10847 10850 10854 10858 10862 10865 10866 10868 10871 10874 10877 10878 10880 10881
10862 10859 10856 10853 10850 10846 10843 10839 10835 10832 10827 10824 10820 10816 10812 10808 10804 10800 10797 10795 10792 10790 10788 10785 10782 10780 10776 10774 10771 10767 10764 10762 10759 10756 10753 10749 10746 10743 10739 10735 10731 10729 10727 10727 10726 10726 10725 10724 10724 10725 10727 10728 10728 10732 10737 10744 10750 10755 10759 10766 10775 10781 10788 10797 10805 10809 10813 10819 10826 10830 10835 10840 10844 10847 10852 10856 10858 10861 10863 10866 10870 10873 10873 10875 10876
10859 10855 10851 10847 10844 10840 10836 10833 10829 10825 10821 10817 10813 10810 10806 10802 10799 10794 10790 10787 10785 10782 10780 10778 10775 10773 10769 10766 10763 10759 10755 10752 10749 10746 10743 10740 10737 10734 10731 10727 10722 10717 10715 10714 10714 10713 10712 10711 10711 10712 10714 10716 10716 10719 10724 10730 10737 10743 10748 10756 10764 10770 10778 10787 10795 10800 10805 10811 10818 10824 10828 10833 10837 10840 10846 10850 10853 10856 10857 10860 10864 10865 10867 10869 10870
10854 10851 10847 10842 10838 10834 10830 10826 10823 10819 10814 10810 10807 10803 10800 10796 10792 10788 10784 10780 10777 10775 10772 10770 10768 10766 10763 10759 10755 10751 10747 10743 10738 10735 10733 10730 10726 10723 10720 10716 10711 10707 10704 10703 10701 10700 10699 10699 10699 10699 10701 10703 10704 10706 10711 10717 10724 10731 10737 10744 10752 10759 10768 10777 10785 10791 10796 10803 10810 10816 10821 10825 10829 10834 10839 10843 10846 10849 10852 10855 10857 10858 10860 10862 10862
10849 10846 10842 10837 10833 10828 10824 10820 10816 10813 10808 10804 10799 10796 10793 10789 10785 10781 10777 10774 10771 10768 10765 10762 10760 10758 10756 10753 10748 10744 10740 10734 10729 10725 10723 10720 10716 10713 10709 10705 10700 10696 10694 10692 10689 10687 10687 10687 10687 10687 10687 10689 10692 10695 10698 10704 10712 10719 10726 10732 10740 10749 10757 10765 10773 10781 10788 10794 10800 10808 10813 10817 10822 10826 10831 10835 10839 10843 10847 10850 10851 10852 10854 10854 10855
10844 10840 10836 10831 10827 10823 10819 10814 10810 10806 10802 10798 10793 10789 10786 10782 10778 10774 10770 10767 10764 10761 10758 10755 10752 10750 10748 10746 10743 10738 10733 10726 10721 10718 10714 10711 10707 10704 10700 10694 10689 10685 10682 10680 10677 10675 10675 10675 10675 10675 10675 10677 10681 10684 10687 10693 10700 10708 10715 10722 10730 10738 10746 10755 10763 10770 10777 10783 10790 10800 10806 10810 10815 10820 10824 10828 10834 10838 10841 10843 10843 10845 10848 10850 10851
10837 10833 10829 10824 10820 10816 10812 10808 10804 10800 10796 10792 10787 10783 10779 10775 10771 10767 10763 10759 10756 10754 10751 10747 10744 10742 10740 10738 10735 10732 10726 10719 10713 10710 10707 10702 10698 10694 10690 10684 10678 10674 10671 10669 10666 10665 10664 10663 10663 10664 10665 10666 10670 10674 10677 10682 10689 10697 10704 10712 10720 10728 10736 10744 10752 10759 10765 10772 10781 10791 10797 10802 10808 10813 10817 10822 10828 10831 10833 10833 10836 10840 10845 10847 10849
10831 10826 10822 10817 10813 10809 10805 10801 10797 10793 10789 10784 10780 10776 10773 10769 10765 10761 10757 10753 10750 10747 10743 10740 10737 10734 10732 10730 10727 10725 10720 10712 10706 10701 10698 10694 10689 10684 10680 10673 10667 10662 10660 10657 10656 10654 10653 10652 10653 10653 10655 10657 10660 10664 10668 10673 10679 10686 10693 10702 10710 10718 10725 10732 10739 10746 10752 10761 10771 10779 10787 10795 10801 10805 10810 10816 10820 10822 10824 10827 10831 10835 10839 10842 10844
10824 10820 10815 10811 10806 10802 10797 10793 10789 10785 10781 10777 10772 10768 10765 10761 10758 10754 10750 10746 10743 10739 10736 10732 10729 10726 10723 10720 10718 10714 10709 10703 10697 10692 10687 10684 10680 10675 10670 10663 10657 10652 10649 10647 10645 10644 10643 10643 10643 10644 10645 10648 10651 10655 10659 10663 10669 10675 10683 10692 10701 10708 10715 10723 10730 10736 10742 10750 10759 10767 10776 10785 10791 10796 10802 10807 10811 10814 10818 10822 10826 10829 10833 10836 10838
10818 10813 10808 10804 10800 10795 10790 10785 10781 10777 10773 10768 10764 10760 10757 10753 10750 10746 10743 10739 10735 10732 10729 10725 10722 10718 10714 10711 10708 10703 10698 10691 10685 10680 10676 10672 10668 10664 10659 10653 10647 10642 10639 10637 10635 10635 10635 10634 10634 10636 10637 10639 10643 10646 10650 10655 10660 10666 10674 10683 10691 10698 10705 10714 10722 10729 10735 10742 10749 10757 10767 10776 10783 10789 10795 10800 10804 10808 10813 10816 10819 10822 10827 10830 10831
10813 10807 10802 10797 10793 10788 10783 10778 10773 10769 10765 10761 10757 10753 10748 10745 10742 10738 10734 10731 10728 10725 10722 10718 10715 10711 10707 10702 10697 10693 10687 10679 10673 10668 10663 10659 10656 10653 10649 10644 10639 10634 10630 10628 10627 10626 10626 10626 10627 10628 10630 10632 10635 10638 10642 10647 10652 10658 10665 10673 10681 10688 10695 10705 10714 10721 10728 10734 10741 10749 10759 10768 10776 10784 10789 10793 10797 10801 10806 10810 10813 10817 10821 10823 10825
10806 10801 10795 10790 10786 10781 10775 10770 10766 10762 10757 10753 10749 10745 10741 10736 10733 10730 10726 10723 10720 10717 10714 10711 10707 10702 10698 10694 10689 10684 10678 10670 10664 10658 10653 10649 10646 10643 10639 10634 10630 10626 10623 10621 10619 10619 10619 10619 10620 10621 10623 10625 10628 10631 10635 10639 10644 10650 10657 10664 10672 10679 10687 10696 10705 10713 10721 10728 10735 10744 10753 10761 10770 10777 10781 10785 10789 10795 10801 10805 10807 10812 10816 10819 10821
10800 10794 10789 10784 10780 10774 10769 10763 10759 10755 10750 10745 10741 10737 10733 10729 10725 10721 10718 10715 10712 10708 10705 10702 10698 10694 10690 10685 10681 10677 10671 10664 10658 10653 10646 10642 10638 10634 10630 10626 10622 10619 10616 10614 10613 10612 10612 10613 10614 10615 10617 10620 10622 10624 10628 10631 10636 10642 10649 10657 10664 10672 10679 10688 10696 10705 10713 10721 10730 10738 10746 10755 10763 10769 10774 10779 10785 10791 10796 10799 10802 10807 10811 10815 10819
10792 10786 10781 10777 10773 10768 10762 10757 10752 10747 10742 10737 10733 10729 10725 10721 10718 10714 10710 10707 10703 10699 10696 10693 10689 10685 10681 10677 10672 10668 10663 10658 10652 10646 10640 10634 10630 10626 10622 10618 10615 10612 10610 10608 10607 10606 10607 10607 10608 10610 10612 10614 10617 10619 10621 10624 10629 10635 10642 10649 10657 10664 10672 10681 10690 10699 10707 10715 10722 10730 10738 10748 10755 10762 10768 10775 10781 10786 10789 10793 10797 10802 10807 10812 10817
10782 10776 10771 10768 10765 10760 10755 10749 10744 10740 10734 10729 10725 10721 10717 10714 10711 10707 10703 10699 10694 10691 10688 10684 10680 10676 10672 10668 10663 10658 10653 10649 10643 10637 10631 10627 10623 10619 10615 10612 10609 10606 10604 10602 10602 10601 10601 10603 10604 10605 10607 10609 10612 10614 10615 10618 10622 10628 10634 10642 10650 10657 10665 10674 10684 10693 10701 10709 10716 10723 10731 10741 10748 10755 10763 10771 10777 10781 10784 10788 10792 10797 10802 10807 10810
10772 10766 10761 10758 10755 10752 10747 10742 10737 10732 10726 10721 10717 10713 10709 10706 10703 10699 10695 10691 10686 10683 10681 10676 10671 10666 10662 10658 10654 10648 10643 10638 10633 10628 10622 10618 10616 10612 10609 10605 10603 10600 10598 10597 10597 10597 10597 10598 10600 10601 10603 10605 10607 10609 10610 10612 10616 10622 10628 10635 10643 10651 10659 10668 10678 10686 10695 10703 10710 10717 10725 10733 10742 10749 10757 10765 10771 10774 10779 10783 10787 10791 10795 10798 10801
10762 10757 10753 10748 10745 10742 10738 10733 10728 10724 10718 10713 10708 10704 10701 10698 10695 10692 10687 10683 10679 10676 10672 10668 10662 10658 10653 10648 10644 10640 10634 10628 10624 10619 10614 10610 10608 10606 10602 10599 10597 10595 10593 10592 10592 10593 10594 10595 10597 10598 10599 10601 10603 10605 10606 10607 10611 10617 10622 10628 10636 10643 10652 10662 10671 10680 10689 10697 10704 10710 10718 10727 10735 10743 10750 10758 10762 10767 10772 10775 10779 10784 10789 10790 10793
10752 10749 10745 10740 10736 10732 10728 10723 10718 10714 10710 10706 10701 10697 10694 10690 10687 10683 10678 10675 10672 10668 10663 10658 10653 10648 10644 10640 10635 10631 10625 10618 10614 10611 10606 10602 10600 10599 10596 10593 10592 10590 10588 10587 10588 10589 10591 10592 10594 10595 10597 10598 10599 10601 10602 10603 10607 10612 10617 10623 10630 10637 10646 10655 10664 10672 10681 10690 10696 10703 10711 10719 10727 10734 10742 10749 10753 10758 10764 10767 10770 10776 10780 10783 10788
10743 10739 10736 10731 10727 10723 10719 10714 10709 10706 10702 10698 10695 10692 10688 10684 10680 10675 10670 10667 10664 10659 10654 10650 10644 10638 10634 10630 10626 10621 10616 10610 10605 10602 10599 10596 10593 10592 10591 10588 10586 10585 10583 10582 10584 10585 10587 10590 10591 10593 10594 10596 10597 10598 10599 10600 10603 10608 10613 10619 10625 10632 10640 10649 10657 10665 10673 10681 10688 10695 10703 10711 10719 10728 10735 10741 10746 10751 10756 10758 10762 10768 10772 10776 10783
10735 10730 10726 10722 10719 10716 10712 10708 10703 10699 10695 10691 10688 10685 10681 10677 10673 10669 10664 10660 10656 10651 10646 10641 10636 10630 10625 10622 10618 10613 10607 10601 10597 10594 10591 10589 10586 10586 10586 10584 10581 10579 10579 10579 10580 10582 10585 10587 10589 10591 10593 10594 10595 10596 10597 10599 10601 10605 10609 10615 10620 10627 10635 10643 10651 10658 10665 10672 10680 10688 10696 10705 10714 10722 10729 10735 10740 10744 10748 10751 10755 10761 10766 10771 10777
10727 10722 10718 10715 10712 10709 10706 10702 10697 10693 10689 10684 10681 10679 10675 10670 10666 10662 10658 10653 10649 10644 10639 10634 10629 10623 10618 10614 10611 10606 10599 10593 10589 10587 10584 10582 10580 10579 10579 10579 10577 10576 10576 10576 10577 10579 10583 10585 10587 10589 10591 10593 10594 10595 10596 10598 10600 10603 10606 10611 10616 10622 10629 10636 10644 10652 10659 10666 10675 10684 10693 10702 10710 10716 10722 10728 10733 10737 10741 10745 10749 10754 10760 10765 10771
10718 10714 10711 10708 10704 10702 10700 10696 10691 10687 10683 10679 10675 10672 10669 10664 10659 10654 10650 10645 10641 10637 10633 10627 10621 10616 10612 10608 10604 10598 10592 10585 10582 10580 10578 10575 10574 10573 10573 10573 10572 10572 10573 10573 10574 10577 10580 10583 10585 10587 10589 10591 10592 10594 10595 10597 10599 10601 10604 10608 10613 10618 10624 10630 10638 10646 10654 10662 10671 10680 10689 10698 10706 10712 10717 10721 10726 10730 10735 10739 10743 10748 10753 10758 10764
10710 10706 10703 10699 10696 10695 10692 10688 10684 10681 10677 10673 10669 10665 10662 10657 10652 10647 10642 10637 10633 10629 10625 10620 10613 10608 10604 10600 10596 10591 10584 10578 10574 10572 10571 10569 10568 10568 10567 10567 10567 10568 10569 10570 10571 10574 10578 10580 10583 10585 10587 10589 10591 10593 10594 10596 10599 10601 10603 10606 10610 10614 10619 10625 10632 10641 10649 10657 10666 10675 10683 10691 10698 10704 10710 10715 10719 10724 10730 10735 10739 10744 10749 10754 10760
10701 10697 10695 10692 10688 10686 10682 10680 10679 10675 10669 10665 10662 10658 10654 10649 10644 10640 10635 10629 10623 10619 10615 10610 10604 10600 10596 10591 10588 10584 10578 10572 10568 10566 10564 10563 10563 10562 10562 10562 10563 10564 10565 10567 10568 10571 10575 10578 10581 10583 10585 10588 10590 10592 10593 10596 10599 10600 10602 10605 10607 10611 10615 10621 10628 10636 10644 10652 10661 10670 10677 10684 10689 10694 10700 10707 10712 10718 10724 10730 10735 10740 10745 10750 10756
10693 10687 10684 10682 10680 10678 10675 10674 10672 10667 10661 10656 10651 10648 10646 10641 10635 10632 10628 10621 10615 10610 10606 10601 10595 10592 10590 10585 10581 10577 10572 10567 10563 10561 10560 10559 10558 10557 10557 10557 10558 10560 10562 10563 10565 10569 10572 10575 10578 10581 10584 10586 10589 10591 10592 10595 10598 10600 10601 10603 10605 10608 10612 10618 10624 10632 10640 10648 10657 10665 10672 10678 10682 10686 10693 10701 10707 10712 10718 10724 10729 10734 10738 10744 10749
10683 10678 10674 10671 10670 10669 10667 10665 10661 10656 10652 10648 10643 10639 10636 10631 10626 10624 10619 10614 10608 10604 10600 10596 10589 10585 10583 10580 10575 10571 10567 10562 10558 10556 10555 10554 10553 10552 10552 10552 10554 10556 10558 10560 10562 10566 10569 10572 10575 10579 10582 10585 10587 10589 10591 10594 10597 10599 10600 10602 10603 10606 10610 10616 10622 10629 10637 10644 10652 10659 10666 10672 10676 10681 10688 10696 10701 10706 10713 10719 10723 10727 10731 10736 10741
10671 10667 10664 10662 10660 10659 10656 10653 10649 10644 10639 10636 10634 10631 10625 10619 10616 10614 10611 10606 10601 10596 10592 10588 10583 10578 10576 10573 10569 10565 10561 10557 10553 10550 10549 10549 10548 10547 10547 10547 10549 10551 10554 10556 10559 10562 10566 10569 10572 10576 10580 10583 10585 10587 10589 10592 10596 10598 10599 10601 10602 10604 10609 10615 10620 10626 10633 10640 10646 10653 10659 10664 10669 10675 10683 10689 10693 10699 10706 10712 10716 10719 10723 10728 10731
10659 10656 10654 10652 10650 10649 10645 10640 10637 10634 10629 10624 10622 10621 10616 10608 10603 10602 10600 10595 10590 10587 10582 10577 10573 10570 10567 10565 10561 10557 10554 10551 10548 10545 10544 10544 10543 10543 10542 10542 10544 10546 10550 10552 10555 10559 10562 10565 10569 10573 10577 10581 10584 10585 10587 10590 10594 10596 10598 10600 10602 10604 10608 10612 10617 10623 10629 10635 10641 10648 10653 10657 10663 10670 10676 10680 10685 10691 10697 10702 10707 10711 10714 10717 10721
10650 10646 10643 10642 10640 10637 10633 10629 10626 10623 10620 10615 10610 10609 10606 10600 10593 10590 10588 10583 10578 10575 10572 10566 10562 10560 10557 10554 10552 10549 10547 10544 10542 10540 10539 10538 10539 10538 10538 10538 10539 10542 10545 10549 10552 10555 10558 10562 10566 10570 10574 10578 10581 10583 10585 10588 10591 10594 10597 10599 10601 10603 10606 10610 10614 10619 10625 10630 10637 10643 10648 10653 10660 10665 10670 10674 10679 10683 10687 10692 10696 10700 10703 10707 10712
10642 10637 10633 10632 10630 10625 10620 10617 10614 10610 10608 10605 10599 10596 10595 10590 10583 10579 10578 10573 10568 10565 10561 10557 10553 10550 10548 10545 10542 10541 10539 10538 10536 10534 10533 10533 10534 10534 10534 10534 10535 10538 10541 10545 10548 10551 10554 10558 10562 10566 10571 10575 10578 10581 10583 10585 10588 10592 10595 10597 10600 10602 10604 10607 10611 10616 10621 10627 10632 10638 10643 10650 10656 10661 10665 10669 10673 10676 10680 10684 10687 10690 10694 10699 10704
10632 10628 10623 10622 10620 10615 10608 10604 10601 10598 10595 10593 10588 10585 10584 10580 10574 10569 10567 10563 10559 10555 10552 10548 10545 10542 10539 10536 10534 10532 10531 10530 10530 10529 10528 10528 10529 10529 10529 10530 10531 10534 10537 10540 10544 10547 10550 10554 10557 10562 10567 10571 10574 10578 10581 10583 10586 10588 10592 10595 10598 10600 10602 10605 10608 10612 10617 10623 10628 10633 10639 10645 10650 10655 10658 10662 10666 10669 10673 10678 10682 10685 10688 10693 10696
10621 10618 10614 10611 10609 10604 10598 10593 10590 10586 10583 10580 10577 10574 10573 10570 10564 10560 10557 10553 10549 10546 10543 10540 10536 10534 10532 10529 10526 10524 10524 10523 10523 10524 10523 10524 10524 10524 10525 10526 10528 10530 10533 10536 10540 10543 10546 10549 10553 10557 10562 10567 10570 10574 10578 10581 10583 10585 10588 10592 10596 10598 10601 10603 10606 10610 10614 10618 10623 10628 10634 10640 10645 10649 10652 10655 10658 10662 10666 10670 10675 10680 10683 10686 10689
10611 10607 10604 10600 10596 10591 10587 10583 10580 10576 10572 10569 10566 10563 10561 10558 10554 10551 10549 10545 10541 10537 10534 10531 10528 10526 10525 10522 10519 10517 10517 10516 10517 10517 10518 10519 10519 10520 10521 10522 10524 10526 10529 10532 10535 10538 10541 10545 10548 10552 10557 10562 10566 10569 10573 10577 10580 10582 10584 10588 10592 10596 10599 10602 10604 10607 10611 10615 10620 10624 10629 10634 10640 10644 10647 10649 10652 10655 10659 10663 10668 10673 10677 10679 10682
10600 10597 10594 10588 10583 10578 10574 10571 10568 10564 10562 10558 10555 10552 10549 10546 10543 10541 10539 10536 10532 10529 10526 10523 10521 10519 10517 10515 10513 10511 10511 10511 10510 10511 10512 10513 10514 10515 10516 10518 10519 10521 10524 10527 10531 10534 10537 10540 10543 10547 10551 10556 10560 10564 10568 10572 10576 10578 10581 10583 10587 10591 10595 10598 10602 10605 10609 10612 10616 10620 10624 10629 10634 10639 10642 10644 10647 10650 10653 10657 10662 10667 10670 10672 10674
10590 10586 10583 10578 10571 10566 10562 10559 10556 10553 10551 10548 10544 10541 10538 10535 10533 10531 10528 10525 10522 10520 10517 10516 10514 10512 10511 10509 10507 10506 10506 10505 10505 10505 10506 10507 10509 10510 10511 10512 10514 10516 10519 10522 10525 10529 10532 10535 10538 10541 10545 10549 10554 10559 10562 10567 10571 10574 10576 10579 10582 10586 10590 10594 10597 10601 10605 10609 10612 10616 10620 10624 10629 10633 10636 10639 10642 10644 10647 10651 10655 10660 10664 10667 10668
10578 10574 10571 10568 10563 10557 10553 10550 10547 10543 10540 10537 10533 10530 10527 10525 10523 10521 10519 10516 10513 10510 10508 10507 10506 10505 10503 10502 10500 10500 10500 10500 10500 10500 10499 10501 10503 10505 10506 10507 10508 10510 10513 10516 10519 10523 10526 10530 10533 10536 10539 10543 10547 10552 10557 10561 10565 10569 10571 10574 10577 10580 10584 10588 10592 10596 10600 10604 10607 10611 10615 10618 10622 10626 10629 10632 10635 10638 10641 10645 10648 10652 10656 10660 10662
10565 10560 10558 10556 10553 10548 10543 10539 10536 10533 10530 10527 10523 10520 10517 10515 10513 10511 10509 10507 10504 10502 10500 10498 10497 10497 10495 10494 10493 10493 10493 10494 10494 10494 10494 10495 10497 10499 10500 10501 10502 10504 10507 10509 10513 10517 10520 10524 10527 10531 10534 10537 10541 10545 10550 10554 10559 10563 10566 10569 10572 10574 10578 10581 10585 10589 10593 10597 10601 10605 10609 10612 10616 10619 10623 10626 10628 10631 10635 10638 10642 10644 10647 10650 10653
10552 10547 10544 10542 10539 10536 10532 10528 10524 10521 10519 10516 10513 10510 10507 10505 10504 10502 10500 10498 10496 10494 10492 10490 10489 10489 10487 10486 10486 10486 10486 10487 10487 10488 10488 10489 10490 10492 10494 10495 10496 10498 10501 10503 10506 10510 10514 10517 10521 10525 10528 10531 10534 10538 10543 10547 10552 10556 10560 10564 10567 10569 10571 10574 10578 10582 10586 10590 10594 10598 10602 10605 10608 10612 10615 10619 10621 10624 10628 10631 10634 10637 10639 10641 10643
10539 10534 10531 10529 10525 10522 10520 10516 10513 10511 10508 10505 10503 10500 10497 10496 10494 10493 10491 10490 10488 10487 10485 10483 10482 10481 10480 10479 10479 10479 10479 10479 10480 10480 10481 10482 10483 10486 10487 10489 10490 10492 10494 10497 10500 10503 10506 10510 10514 10518 10521 10525 10528 10532 10535 10540 10544 10549 10553 10557 10560 10563 10565 10568 10571 10575 10578 10582 10586 10590 10594 10597 10600 10604 10607 10611 10614 10617 10620 10623 10626 10629 10631 10633 10635
10529 10523 10520 10517 10515 10511 10508 10505 10502 10500 10497 10495 10492 10490 10487 10486 10485 10484 10483 10481 10480 10479 10478 10476 10474 10473 10472 10472 10471 10472 10472 10472 10472 10473 10474 10475 10477 10479 10481 10482 10484 10486 10488 10490 10493 10495 10499 10503 10506 10510 10514 10517 10521 10524 10528 10532 10536 10541 10545 10549 10553 10556 10559 10561 10564 10567 10570 10574 10577 10582 10586 10589 10593 10596 10599 10602 10606 10609 10612 10615 10618 10620 10623 10625 10627
10518 10513 10508 10506 10503 10501 10498 10494 10491 10489 10487 10484 10482 10480 10478 10477 10476 10475 10474 10473 10472 10471 10470 10468 10467 10465 10465 10464 10464 10464 10465 10465 10465 10465 10466 10468 10469 10472 10474 10475 10477 10478 10481 10483 10485 10488 10491 10495 10498 10502 10506 10509 10513 10516 10519 10523 10528 10532 10537 10541 10544 10548 10551 10554 10557 10560 10563 10566 10569 10572 10576 10580 10584 10587 10591 10594 10597 10600 10603 10606 10609 10611 10614 10616 10619
10506 10502 10499 10495 10492 10489 10487 10484 10481 10479 10477 10474 10472 10471 10470 10469 10468 10467 10466 10465 10464 10463 10462 10461 10459 10458 10457 10457 10457 10457 10457 10457 10458 10459 10459 10460 10462 10464 10466 10467 10469 10471 10473 10476 10478 10481 10483 10486 10490 10494 10497 10501 10504 10507 10510 10514 10518 10523 10527 10532 10535 10539 10542 10546 10549 10552 10555 10558 10560 10563 10567 10571 10574 10578 10581 10585 10588 10591 10595 10598 10600 10603 10605 10607 10610
10494 10491 10489 10485 10482 10479 10476 10474 10471 10469 10468 10466 10464 10462 10461 10461 10460 10459 10458 10457 10456 10454 10453 10452 10451 10451 10450 10450 10450 10449 10449 10449 10450 10451 10452 10453 10454 10455 10457 10459 10462 10463 10465 10467 10470 10473 10475 10478 10481 10485 10488 10492 10495 10498 10501 10504 10508 10512 10517 10522 10525 10529 10532 10536 10540 10543 10546 10549 10552 10555 10558 10561 10565 10568 10572 10575 10578 10582 10585 10588 10591 10594 10596 10598 10601
10484 10481 10479 10476 10472 10470 10467 10464 10462 10460 10459 10457 10456 10454 10453 10453 10452 10451 10451 10449 10448 10446 10445 10444 10443 10443 10443 10443 10443 10442 10442 10442 10442 10443 10444 10445 10446 10447 10449 10451 10453 10455 10457 10459 10461 10464 10467 10469 10472 10475 10479 10482 10486 10489 10492 10495 10498 10502 10506 10510 10515 10519 10522 10525 10529 10533 10536 10540 10543 10546 10549 10552 10555 10559 10562 10565 10568 10571 10574 10577 10581 10584 10586 10588 10591
10474 10471 10469 10466 10463 10461 10458 10456 10454 10452 10451 10450 10448 10447 10446 10445 10444 10443 10442 10441 10440 10438 10437 10436 10436 10436 10435 10435 10435 10435 10434 10434 10434 10435 10436 10436 10438 10439 10440 10442 10443 10445 10447 10449 10451 10454 10457 10460 10463 10466 10469 10472 10476 10479 10483 10486 10488 10491 10495 10499 10503 10507 10511 10515 10518 10522 10525 10529 10532 10536 10539 10543 10546 10549 10552 10555 10558 10561 10564 10566 10570 10573 10576 10578 10580
10465 10463 10461 10458 10456 10453 10451 10449 10447 10445 10443 10442 10441 10440 10439 10438 10436 10435 10434 10433 10432 10430 10429 10429 10429 10428 10427 10427 10427 10427 10426 10426 10426 10427 10427 10428 10429 10430 10432 10433 10434 10436 10437 10439 10442 10444 10447 10451 10454 10456 10459 10462 10466 10469 10473 10476 10479 10482 10485 10488 10492 10496 10500 10503 10507 10511 10514 10517 10521 10524 10528 10531 10535 10538 10541 10544 10547 10550 10553 10556 10559 10562 10564 10567 10570
10457 10455 10453 10451 10449 10446 10444 10442 10440 10438 10437 10436 10434 10433 10432 10430 10428 10427 10426 10425 10425 10423 10422 10421 10421 10420 10420 10419 10419 10418 10419 10418 10418 10418 10419 10419 10420 10422 10423 10424 10425 10427 10428 10430 10432 10434 10437 10440 10444 10447 10449 10452 10455 10458 10462 10465 10469 10471 10474 10477 10481 10484 10488 10492 10495 10499 10503 10506 10509 10512 10516 10519 10522 10526 10529 10532 10535 10538 10541 10544 10547 10550 10553 10555 10558
10450 10448 10446 10443 10441 10439 10437 10434 10432 10431 10430 10429 10427 10426 10425 10423 10421 10420 10418 10418 10417 10416 10415 10414 10413 10413 10413 10412 10411 10411 10411 10411 10411 10411 10411 10412 10412 10413 10414 10415 10417 10418 10419 10421 10422 10424 10427 10430 10433 10436 10439 10442 10444 10447 10450 10454 10457 10461 10464 10467 10470 10473 10476 10480 10483 10487 10490 10494 10497 10500 10503 10506 10510 10513 10516 10519 10523 10526 10529 10532 10535 10538 10541 10543 10546
10442 10441 10439 10437 10434 10431 10429 10427 10425 10424 10423 10422 10421 10419 10418 10416 10415 10413 10412 10411 10411 10410 10409 10408 10407 10407 10407 10406 10405 10405 10405 10404 10404 10404 10404 10404 10405 10405 10406 10407 10408 10409 10410 10412 10413 10415 10417 10419 10422 10425 10428 10431 10434 10436 10439 10441 10445 10448 10452 10455 10458 10461 10465 10468 10471 10475 10478 10481 10484 10488 10491 10494 10497 10500 10503 10506 10509 10513 10516 10519 10522 10525 10528 10531 10533
10436 10434 10432 10430 10427 10424 10422 10420 10418 10417 10416 10415 10414 10413 10411 10410 10409 10408 10407 10406 10405 10404 10403 10403 10402 10402 10401 10400 10400 10399 10399 10399 10399 10399 10398 10398 10398 10398 10398 10399 10400 10401 10402 10403 10405 10406 10407 10409 10412 10414 10417 10419 10422 10425 10428 10430 10433 10436 10440 10443 10447 10450 10453 10456 10459 10462 10466 10469 10472 10475 10479 10482 10485 10488 10491 10494 10497 10500 10503 10506 10509 10512 10515 10518 10521